Lapse_Rate
0.2 -0.2 -1.0 -0.9 -1.0 -0.9 -1.1 -1.3 -1.1 -0.8 -0.9 -1.0 -0.9 -1.0 -1.3 -1.6 -1.2 -1.3 -1.4 0.1 1.9 3.2 4.9 5.9 6.2 6.1 6.3 6.4 6.2 5.9 5.8 5.8 6.0 6.1 6.2 6.4 6.5 6.4 6.3 6.4 6.5 6.3 6.3
-0.3 -0.8 -1.2 -1.0 -1.3 -0.9 -1.2 -1.3 -1.2 -1.0 -1.1 -0.6 -0.6 -0.4 -0.7 -0.5 -0.8 -1.1 -0.8 -1.1 -0.5 1.1 2.0 4.3 6.0 6.2 6.7 6.4 6.1 5.8 5.5 5.4 5.6 5.9 6.1 6.3 6.5 6.7 6.3 6.4 6.4 6.3 6.4
-0.4 -1.3 -1.7 -1.5 -1.6 -1.4 -1.5 -1.2 -1.0 -0.9 -0.9 -0.3 -0.8 -0.7 -0.6 -0.6 -0.4 -0.3 -0.5 -0.6 -1.0 -0.8 0.6 2.2 4.9 6.2 6.1 5.9 5.9 5.4 5.2 5.8 5.5 5.4 5.8 5.9 5.9 5.9 6.1 6.1 6.0 5.8 6.0
-1.0 -1.6 -2.2 -2.5 -2.1 -1.8 -1.3 -0.7 -0.3 -0.5 -1.1 -0.7 -1.2 -1.6 -1.7 -1.5 -0.8 -1.1 -0.7 -1.3 -1.4 -1.4 -1.1 0.5 1.6 4.0 5.3 5.6 5.4 5.6 5.3 5.4 5.3 5.4 5.3 5.2 5.3 5.4 5.4 5.4 5.4 5.4 5.5
-1.2 -2.3 -2.8 -3.1 -2.2 -2.0 -1.1 -0.5 -0.8 -0.5 -1.1 -1.0 -1.2 -1.6 -2.1 -2.8 -2.3 -1.7 -2.1 -1.8 -1.8 -1.9 -1.3 -1.3 -0.2 1.8 3.7 5.5 5.4 5.4 5.5 5.6 5.6 5.5 5.4 5.3 4.9 4.9 4.9 4.9 4.9 5.1 5.1
-1.3 -1.8 -2.7 -3.0 -2.2 -1.7 -0.9 -0.0 -1.2 -1.1 -1.0 -0.9 -0.2 -0.7 -1.7 -2.4 -2.5 -3.1 -3.6 -2.9 -2.6 -1.9 -1.9 -1.6 -1.4 -1.2 1.2 4.2 5.9 5.8 5.5 4.9 5.1 5.5 5.3 5.5 5.4 4.8 4.4 4.3 4.4 4.5 4.8
-1.5 -1.9 -2.6 -3.0 -2.6 -2.5 -3.0 -1.2 -1.6 -2.0 -3.0 -1.6 -2.8 -0.4 -1.4 -1.7 -2.1 -3.1 -3.2 -3.7 -3.4 -2.7 -2.0 -1.7 -1.6 -0.8 -0.3 1.4 4.8 5.7 5.7 5.6 5.4 5.0 4.8 5.1 5.4 5.5 5.0 4.1 4.2 4.0 4.2
-2.0 -2.3 -2.4 -3.1 -3.6 -3.1 -2.8 -2.2 -2.2 -4.2 -3.3 -3.2 -1.9 -1.2 0.6 1.1 -1.8 -2.7 -3.1 -3.0 -3.8 -3.4 -3.2 -2.3 -1.1 -0.3 0.3 0.2 2.4 4.6 5.9 6.1 5.8 5.6 5.2 5.2 5.6 6.7 6.4 4.9 4.3 3.8 3.8
-1.5 -2.2 -2.7 -3.3 -3.7 -2.6 -2.9 -3.7 -3.3 -2.6 -5.2 -4.3 -3.1 -1.2 -0.4 0.3 -2.4 -2.9 -3.4 -3.7 -3.9 -4.1 -3.5 -3.1 -2.3 -1.0 0.1 0.8 2.1 3.1 4.3 5.3 5.7 6.9 6.4 6.2 6.6 6.1 5.7 5.2 4.5 4.0 3.6
-2.5 -3.2 -3.3 -3.5 -3.8 -4.1 -3.8 -3.4 -2.2 -2.6 -2.7 -3.4 -2.7 -2.6 -3.4 -3.5 -1.6 -1.6 -2.9 -3.6 -3.0 -3.2 -3.9 -3.3 -2.6 -2.1 -0.6 0.9 2.1 3.5 4.7 5.4 5.8 6.3 6.3 7.2 7.0 7.7 8.0 7.6 6.3 4.5 3.5
-2.6 -2.7 -2.9 -3.0 -3.7 -3.2 -3.4 -2.5 -2.6 -2.1 -2.2 -2.6 -2.7 -2.9 -2.5 -3.6 -3.6 -3.8 -3.4 -3.2 -3.4 -3.7 -3.0 -3.0 -2.6 -1.4 -1.0 -0.1 1.4 3.2 4.3 5.2 5.6 6.0 6.1 5.3 5.2 5.7 7.8 8.2 8.2 7.2 6.6
-3.1 -2.5 -3.1 -3.2 -3.4 -3.8 -3.8 -2.8 -2.1 -1.9 -2.1 -2.1 -2.3 -1.8 -1.2 -0.8 -2.0 -3.3 -3.9 -3.6 -3.0 -3.1 -2.9 -2.3 -2.2 -1.7 -0.6 -0.1 0.3 1.7 2.4 3.4 4.4 4.8 4.1 3.7 4.4 4.9 4.9 6.0 6.7 6.8 6.4
-3.4 -3.3 -2.9 -3.2 -4.0 -3.3 -3.3 -2.9 -3.3 -3.0 -2.8 -2.3 -2.1 -2.2 -1.8 -1.6 -1.8 -2.2 -2.9 -3.5 -2.9 -1.6 -1.6 -2.0 -1.7 -1.0 -0.9 -0.0 0.4 1.1 2.2 2.8 3.5 3.8 3.8 3.7 4.3 4.6 4.9 5.1 5.4 5.9 7.3
-3.8 -3.6 -1.9 -3.0 -3.3 -3.2 -3.2 -3.0 -3.6 -4.0 -3.3 -4.1 -3.1 -3.1 -3.3 -2.9 -2.0 -1.8 -2.4 -3.2 -2.8 -2.7 -2.4 -1.7 -1.5 -0.9 -0.5 0.4 0.8 1.7 2.1 3.1 3.5 3.6 3.6 3.7 4.1 4.6 4.9 5.4 5.7 6.0 6.4
-3.6 -1.7 -2.0 -2.5 -2.7 -2.8 -2.8 -2.6 -2.6 -3.5 -3.9 -4.3 -4.4 -4.1 -3.7 -3.6 -2.8 -2.1 -1.6 -0.7 -0.4 -1.8 -0.5 -1.5 -0.4 -1.0 0.1 1.0 1.8 2.3 2.5 3.8 4.0 3.8 3.6 3.6 3.8 4.5 5.4 5.6 5.5 5.6 5.5
-2.1 -0.7 -2.0 -0.7 -2.7 -2.4 -2.5 -2.6 -3.1 -3.5 -3.7 -4.6 -3.9 -3.6 -3.7 -3.7 -3.5 -2.9 -2.8 -1.9 -1.5 -0.8 -0.4 -2.4 -2.2 -1.2 0.4 1.6 2.0 2.5 2.5 3.1 3.9 4.3 4.3 4.1 4.2 4.6 5.1 5.2 5.4 5.5 5.5
-1.1 0.4 -1.2 0.6 -1.2 -1.6 -1.8 -2.4 -2.5 -2.0 -2.3 -2.8 -3.4 -3.6 -3.8 -3.1 -3.7 -3.6 -2.7 -2.5 -1.8 -1.5 -2.2 -2.4 -1.8 -0.6 0.3 1.2 1.9 2.4 2.8 3.2 3.6 4.6 5.0 4.9 4.9 5.0 5.0 5.2 5.3 5.2 5.3
-0.2 -0.5 0.3 1.3 0.9 0.3 -0.6 -0.9 -1.0 -1.4 -1.6 -2.5 -2.8 -3.4 -3.3 -1.9 -3.2 -3.0 -2.9 -2.3 -1.9 -1.9 -1.3 -1.1 -1.5 -1.0 -0.2 1.2 1.7 2.3 2.7 3.3 3.9 5.0 5.3 5.2 5.4 5.5 5.6 5.8 5.5 5.4 5.5
-0.5 1.4 2.4 2.1 1.0 0.5 -0.7 -0.3 0.2 -0.9 -1.4 -1.3 -2.0 -2.5 -2.5 -2.1 -2.3 -2.4 -2.1 -1.9 -1.5 -0.6 -1.2 -0.8 -1.1 -1.1 -0.3 1.1 1.4 2.1 2.6 3.3 3.8 4.0 4.7 4.9 5.2 5.3 5.5 5.7 5.6 5.7 6.0
-0.5 0.7 2.1 2.6 1.4 1.5 1.6 1.1 0.6 -0.0 -0.4 -0.8 -1.6 -1.4 -1.4 -1.4 -1.2 -1.1 -0.6 -0.8 -0.4 -0.7 -0.7 -0.5 -0.2 0.0 0.6 1.3 1.3 1.7 2.1 2.6 2.4 3.5 4.1 4.3 4.4 4.5 4.9 5.3 5.0 5.2 5.8
0.7 0.9 1.6 2.5 1.0 0.8 1.2 0.3 1.4 2.6 1.8 -0.9 -0.8 -0.2 0.3 1.3 1.7 1.7 0.0 -0.4 -0.1 -0.1 0.2 0.7 1.1 1.3 1.7 2.0 2.4 1.9 2.6 2.1 2.2 3.0 3.4 4.0 4.1 4.5 4.7 4.6 4.7 5.4 6.2
1.3 1.4 1.5 1.6 1.0 0.7 1.9 4.0 2.7 0.6 -0.1 0.0 -0.0 0.1 2.4 3.6 3.9 4.0 3.7 3.0 2.2 -1.1 -0.3 0.4 1.3 2.1 1.9 2.0 2.1 2.4 2.6 2.8 2.5 3.4 2.4 2.4 4.1 3.6 4.4 4.5 5.0 5.8 6.6
1.7 1.4 1.1 0.8 1.4 4.0 6.3 5.1 3.2 1.1 0.8 0.4 0.5 1.1 1.8 3.0 3.2 3.8 4.9 4.8 4.9 4.5 3.3 0.3 -0.6 0.4 0.9 2.5 2.7 3.0 3.1 3.1 3.1 3.9 3.2 2.0 3.6 2.8 4.6 5.1 5.5 6.7 7.4
1.7 1.3 1.7 2.7 4.5 6.2 6.2 4.6 3.3 1.8 1.4 0.9 1.1 1.4 1.2 1.3 2.7 2.6 2.1 1.8 2.1 2.9 3.6 3.5 2.9 2.7 3.7 3.9 4.1 4.1 4.0 3.7 3.8 4.4 4.8 2.7 3.5 4.0 5.3 5.8 5.8 6.9 7.9
2.5 2.5 3.9 5.4 5.9 5.6 5.7 4.7 2.7 1.9 1.6 1.1 1.5 2.1 2.4 2.4 4.8 4.3 2.0 1.4 2.4 3.0 4.6 5.2 4.8 4.9 5.2 5.7 5.1 4.1 1.7 1.4 2.6 4.4 5.0 4.3 4.9 4.7 4.8 4.9 6.0 7.1 7.3
3.2 5.1 5.4 4.8 6.1 4.2 5.6 4.6 2.9 2.2 1.7 2.2 2.0 3.0 4.2 3.7 5.8 4.9 2.2 1.3 1.0 3.4 3.6 4.1 4.3 4.6 5.0 5.3 5.8 5.3 3.6 2.1 3.9 4.3 5.7 5.4 5.6 5.8 5.3 5.8 6.3 6.5 6.8
Wind_Speed
14 15 13 13 14 16 17 16 17 17 18 18 20 18 18 18 17 16 18 30 33 33 25 6 8 12 16 18 19 19 19 19 17 15 16 13 13 12 11 11 10 11 11
16 15 13 13 15 16 15 16 15 16 15 17 18 18 17 16 17 20 17 19 27 33 33 28 8 12 16 18 19 19 18 17 16 14 14 13 11 10 11 11 9 7 8
18 18 14 12 14 18 20 19 18 18 16 16 17 18 17 19 19 19 17 18 22 23 30 34 30 8 16 18 19 19 13 13 16 19 14 14 15 16 15 15 15 16 13
19 17 14 13 16 16 16 15 13 9 8 9 7 14 16 17 18 18 18 20 21 19 19 30 36 33 16 13 17 20 24 24 26 26 28 29 27 27 26 25 26 25 23
21 17 14 16 18 16 14 13 7 9 8 9 9 12 15 15 16 17 20 20 20 23 21 21 27 34 33 26 28 29 30 28 27 28 29 29 29 28 27 26 26 24 23
20 19 15 16 17 15 10 11 10 9 8 9 10 9 11 14 16 17 16 17 19 21 23 25 24 22 29 27 27 28 28 28 29 28 28 27 25 24 24 24 23 22 22
18 18 15 15 14 9 8 12 9 12 6 6 4 6 7 10 13 13 17 15 18 19 22 25 21 24 22 26 22 22 23 23 23 23 24 22 21 21 21 21 21 21 20
16 17 17 12 13 9 10 7 7 3 3 1 3 3 2 2 4 9 12 12 16 17 20 22 23 23 23 20 25 25 22 21 19 18 20 19 19 18 18 17 18 18 18
14 17 17 15 14 13 8 4 5 6 4 1 3 4 3 3 1 3 6 8 12 13 17 19 21 22 23 23 22 22 21 19 20 16 15 15 13 14 13 15 16 16 16
11 12 15 15 14 14 7 4 7 3 4 4 2 4 4 4 3 1 3 3 9 8 13 16 20 20 21 23 23 22 17 17 16 15 14 17 11 11 11 12 13 14 14
11 13 14 16 13 13 15 12 5 5 3 4 3 3 3 4 4 3 2 1 3 6 11 13 16 17 18 20 22 20 18 16 15 15 16 13 12 11 10 10 12 12 13
6 9 13 16 15 13 14 12 10 6 4 4 3 3 3 3 3 3 3 1 2 2 5 10 13 14 15 17 16 16 17 16 16 14 13 12 12 11 11 10 10 10 11
3 5 8 9 13 12 16 16 11 7 5 4 4 3 2 2 3 3 3 2 2 1 1 6 8 11 12 14 15 16 16 15 14 13 12 12 12 11 11 10 10 10 10
3 10 8 10 12 17 16 15 11 9 11 5 7 5 4 3 2 3 4 4 2 1 2 1 5 8 10 10 12 12 15 14 13 13 12 12 12 11 11 11 10 10 11
6 7 10 11 12 13 15 14 8 7 10 7 5 6 4 4 6 4 3 2 4 3 1 1 1 4 7 9 9 11 12 12 12 12 11 11 11 10 10 10 10 10 9
11 7 10 8 12 10 13 15 9 10 9 5 6 7 5 4 7 8 4 3 2 3 3 1 0 1 5 7 8 9 10 9 10 10 10 9 9 9 8 8 8 8 8
9 7 9 7 10 10 10 11 9 9 9 8 6 6 6 7 4 4 6 3 3 3 3 1 1 2 3 4 7 8 8 8 8 8 9 9 8 9 9 8 8 8 8
10 8 10 8 8 7 12 10 9 7 9 8 8 7 7 6 6 5 4 5 3 3 3 4 1 2 3 4 4 5 6 8 9 9 8 9 8 9 8 9 9 9 8
11 11 10 7 7 6 9 11 10 8 8 7 7 8 7 6 6 4 5 5 3 3 3 4 3 1 2 3 4 4 6 7 8 8 8 10 10 10 9 10 10 10 9
10 9 10 9 10 10 11 12 12 8 8 8 10 10 8 6 6 6 5 5 4 5 4 4 3 3 2 3 4 3 3 6 6 8 7 9 10 10 11 10 11 10 9
12 14 10 9 11 10 8 9 10 8 8 7 9 12 13 14 13 12 5 4 5 4 4 4 3 2 2 2 3 1 2 2 2 7 6 9 13 12 12 11 9 10 10
9 10 9 8 7 7 16 17 15 8 8 8 7 7 13 16 16 16 15 12 12 4 3 2 2 2 2 2 1 1 1 2 2 2 5 4 7 8 12 12 11 10 11
9 9 8 9 5 11 20 19 17 11 8 6 6 7 7 11 14 14 14 13 13 11 8 5 4 2 2 3 3 1 1 0 1 3 3 3 3 3 10 14 12 11 11
8 8 8 8 9 10 19 20 18 12 10 9 10 10 9 9 12 12 9 7 8 9 8 8 6 5 4 4 3 2 1 1 3 6 3 2 2 2 10 18 11 6 9
7 6 7 8 8 7 20 21 16 10 7 6 10 13 12 10 12 11 7 5 4 4 5 5 4 3 2 2 2 4 1 2 2 2 2 2 2 3 5 8 7 1 15
6 6 6 5 13 7 20 19 16 8 8 6 7 9 11 10 11 11 7 5 4 3 3 3 3 4 4 4 4 1 3 2 1 2 1 1 2 3 3 3 6 18 18
Wind_Direction
117 118 106 96 94 98 95 88 86 82 75 72 67 62 55 47 41 41 34 36 43 48 45 50 130 125 122 118 109 102 93 86 79 76 78 83 81 85 77 105 95 88 84
129 124 115 109 102 103 97 95 94 90 80 75 67 62 56 53 48 42 34 30 37 43 39 36 135 124 127 124 117 103 92 84 73 66 68 77 78 81 84 77 82 104 97
136 132 125 114 112 110 107 102 96 92 86 77 68 57 51 41 43 42 37 34 30 32 37 39 51 114 117 110 105 92 79 86 81 71 76 70 69 66 62 62 63 59 59
135 131 129 124 126 118 114 110 108 94 86 78 71 57 53 45 42 38 40 38 32 21 27 38 43 50 81 102 110 104 88 80 74 74 68 65 69 71 69 65 59 54 50
133 124 127 129 127 120 114 117 97 107 106 93 83 69 54 45 39 38 37 37 35 32 26 34 43 45 43 72 79 83 81 77 73 70 69 65 60 59 59 59 56 52 48
135 127 126 129 129 124 120 120 110 99 109 109 92 74 56 45 42 38 31 41 39 39 38 40 39 41 43 49 75 77 77 76 72 66 63 61 59 58 54 51 51 51 44
138 134 134 132 130 133 129 125 115 115 104 119 95 75 56 47 45 32 33 33 38 41 45 46 41 45 40 42 54 80 78 72 70 66 60 56 53 51 49 46 45 43 41
141 140 144 145 134 130 128 141 137 128 97 353 113 103 100 33 40 33 32 30 35 42 42 43 49 51 51 40 48 56 75 77 71 65 62 51 46 44 45 48 42 40 37
150 148 147 148 138 142 148 140 132 126 136 51 77 124 115 179 109 353 24 25 35 40 46 44 46 54 60 53 50 52 62 72 67 59 63 59 41 46 40 40 37 33 34
123 140 145 146 146 136 132 137 139 120 123 134 90 47 50 132 149 113 8 13 36 37 38 52 50 48 57 61 57 52 63 70 72 66 53 57 45 43 40 38 35 34 33
142 147 152 151 153 153 145 149 139 138 101 131 122 132 77 63 73 127 155 332 40 24 46 50 58 52 48 53 55 55 57 61 64 61 56 57 52 46 42 38 35 34 33
127 156 158 153 152 151 143 150 145 139 125 115 119 120 138 151 160 129 119 117 124 15 40 49 52 53 53 50 47 57 57 56 57 60 64 57 51 45 41 39 38 38 38
134 146 163 165 146 154 147 150 140 131 131 124 128 106 101 107 125 115 103 120 129 141 86 47 51 61 57 52 49 54 57 59 61 61 58 53 45 40 37 33 33 37 37
137 134 159 137 138 143 138 137 127 118 121 114 110 99 98 75 90 123 143 140 96 85 60 152 40 51 57 54 50 57 58 61 61 60 56 51 45 39 32 31 34 33 36
125 158 142 139 138 135 128 126 123 111 109 100 100 100 93 65 74 83 110 116 133 138 135 61 89 46 58 62 51 54 55 56 58 56 52 49 44 36 37 40 37 36 24
133 154 124 145 116 124 124 121 107 109 109 100 107 99 85 72 71 73 86 88 81 124 129 146 88 122 83 74 54 57 53 56 48 47 45 45 43 40 40 36 27 16 16
100 134 113 133 115 120 120 112 110 119 110 110 99 98 90 94 81 74 78 77 80 95 111 106 90 80 73 70 53 59 53 48 48 39 44 42 41 41 40 30 22 17 9
132 133 119 110 114 119 124 117 118 123 121 118 115 103 98 96 77 74 78 83 85 69 112 116 99 62 81 60 64 62 49 52 47 39 39 34 41 33 27 23 18 5 357
105 104 114 113 109 115 100 96 111 113 106 116 115 108 115 105 88 81 77 84 80 77 91 126 123 102 78 61 71 62 51 37 39 32 56 50 41 32 19 9 359 350 345
112 99 99 106 98 97 101 112 109 103 98 102 104 106 107 101 110 100 85 85 86 85 83 97 82 88 97 50 79 67 27 25 18 43 52 35 17 5 356 349 348 343 338
118 119 107 98 89 91 97 92 104 110 117 106 101 104 109 110 107 103 106 95 95 86 87 89 85 80 68 60 69 7 57 344 22 34 0 355 349 353 355 350 345 343 339
126 123 118 116 113 129 156 149 133 122 119 118 114 101 110 108 107 105 104 106 116 120 103 111 115 118 112 108 77 70 45 33 342 2 358 314 332 338 347 347 337 328 330
122 117 122 128 140 150 153 148 137 126 120 121 117 111 97 97 101 102 102 95 93 91 96 127 121 141 133 159 140 110 99 121 252 299 2 300 328 323 345 335 325 327 328
131 130 136 151 141 150 153 147 138 125 120 112 114 113 112 110 115 111 103 87 82 82 92 101 114 152 138 163 181 167 181 257 285 286 213 251 293 285 316 320 323 351 12
119 122 153 136 139 144 154 148 136 126 118 113 121 127 128 130 134 128 111 105 97 81 84 103 120 158 172 125 166 142 339 92 303 272 240 191 288 287 280 291 311 318 349
139 143 133 134 152 146 157 153 139 132 129 130 117 138 145 150 147 143 133 133 122 162 129 106 83 77 55 31 33 55 164 169 207 327 296 342 314 354 328 291 317 331 335